GFSFLT1_925_thetae_000.txt.gz
Theta_e
339 337 337 338 340 341 342 342 343 343 343 343 344 343 344 345 346 344 345 344 344 342 344 342 340 338 337 335 335 334 333 333 331
330 330 323 328 333 336 339 341 342 343 343 344 343 343 343 341 343 345 344 343 343 343 340 339 337 337 334 332 333 333 332 331 331
331 327 322 324 325 326 332 340 340 341 342 344 343 343 343 342 340 343 343 343 342 343 341 337 335 333 333 332 331 331 330 330 329
327 328 324 324 326 329 330 333 339 340 342 343 344 343 341 340 341 341 342 341 341 342 338 335 334 332 330 329 330 330 330 329 329
324 326 324 326 326 326 330 330 333 337 341 342 343 343 341 338 337 338 340 341 340 342 337 334 333 332 329 330 329 330 329 329 329
321 321 322 324 328 324 328 329 334 340 341 343 343 343 342 331 338 338 336 340 338 340 337 335 332 330 330 330 331 329 328 329 329
317 318 319 320 322 322 323 325 331 336 338 342 342 342 340 339 340 341 339 337 336 339 339 336 332 329 329 329 330 328 329 329 328
311 313 314 317 318 319 320 322 325 326 330 336 341 342 341 340 339 339 338 336 335 337 338 337 333 329 329 330 331 329 328 328 327
310 310 310 311 312 313 314 316 318 321 325 330 329 339 340 339 339 338 339 335 334 333 337 339 333 328 329 331 331 331 328 328 327
309 309 309 310 310 311 311 311 313 316 320 324 329 334 341 341 339 336 340 336 333 333 337 339 335 330 328 330 332 329 329 328 327
308 308 308 309 309 309 310 311 312 314 316 320 323 333 332 337 340 340 337 338 332 331 336 338 337 333 330 329 333 331 327 328 328
307 307 307 307 307 308 309 309 310 312 314 317 321 323 332 331 332 338 339 338 334 332 331 338 337 335 331 329 333 331 328 327 328
306 307 307 306 306 307 308 308 309 310 311 313 317 321 326 326 323 329 337 338 336 332 329 333 338 336 333 331 333 329 327 326 328
305 306 306 305 305 305 306 306 307 309 309 310 311 313 317 327 329 326 329 334 337 335 333 329 334 337 335 333 334 332 328 328 328
304 304 305 304 304 304 304 306 307 308 308 310 312 313 315 318 323 331 328 329 335 335 333 330 328 335 335 334 333 331 329 329 328
303 303 303 303 303 303 304 305 304 306 308 308 310 311 312 313 316 323 331 332 334 335 333 332 327 330 334 333 334 333 331 329 328
302 302 302 302 302 302 303 303 304 304 305 307 307 308 309 311 313 319 325 330 333 334 334 332 331 327 328 333 332 333 331 330 329
301 301 301 301 301 301 302 302 303 304 304 305 306 307 308 308 308 311 313 324 328 331 332 332 330 328 327 332 332 332 329 330 330
301 301 301 301 301 301 301 301 302 302 303 303 304 306 306 307 309 310 311 312 325 328 331 331 331 330 330 330 331 330 329 330 330
300 300 301 301 301 301 301 301 301 301 301 303 305 304 304 305 308 310 310 310 315 326 329 330 330 331 331 331 331 329 327 330 329

GFSFLT1_925_thetae_003.txt.gz
Theta_e
333 322 323 331 337 340 341 342 342 343 344 343 344 342 344 345 344 345 344 345 343 342 343 342 341 339 338 336 334 335 333 333 332
328 326 323 324 325 330 337 342 342 343 342 344 343 343 342 345 346 346 346 346 343 343 343 341 339 337 334 332 332 332 332 331 331
334 331 328 327 324 328 327 334 340 342 342 343 344 343 342 340 341 345 346 345 342 345 343 340 336 336 335 331 330 331 332 330 329
327 325 328 333 332 329 328 328 331 337 341 342 344 343 343 341 338 341 344 344 343 345 343 338 335 334 334 329 329 331 331 330 330
322 322 324 325 330 327 330 330 332 335 337 341 343 345 343 341 339 338 341 343 342 344 341 337 335 333 331 330 329 329 331 329 329
318 318 319 323 324 323 323 325 333 328 327 339 342 343 343 343 337 332 337 337 337 343 342 338 336 334 332 331 331 328 330 329 331
313 314 315 317 318 317 317 319 324 323 328 326 334 342 342 341 337 338 338 333 335 343 342 338 336 332 332 333 332 328 329 330 330
308 309 310 312 313 314 314 315 316 316 316 329 331 328 336 341 339 338 338 339 337 340 343 340 336 332 332 333 331 329 329 329 329
307 308 308 309 310 310 310 310 312 313 314 316 326 331 331 337 339 339 339 339 338 342 341 342 339 334 332 332 332 331 330 329 329
306 307 307 307 306 305 306 307 309 311 313 315 317 321 331 334 337 340 341 339 339 340 340 340 340 336 333 332 335 334 329 328 329
305 307 307 307 305 305 308 308 309 310 309 311 314 317 321 327 331 333 336 339 339 339 338 338 339 337 334 331 335 334 332 329 328
305 306 307 306 305 306 307 308 305 306 306 306 304 307 312 317 322 329 327 327 334 338 334 335 339 339 335 332 334 334 330 329 329
304 305 306 305 305 305 305 304 307 306 307 307 309 311 311 313 315 318 329 332 329 335 338 334 334 337 336 334 331 334 330 327 329
303 303 304 303 304 305 304 305 305 305 306 307 308 306 310 312 315 318 322 326 332 331 336 336 333 332 337 335 332 333 333 329 329
302 302 303 303 303 303 304 303 304 303 304 304 306 307 307 303 308 311 313 316 323 333 333 333 333 331 333 336 334 335 333 330 328
301 302 302 302 302 302 302 302 303 304 303 304 305 303 304 305 302 310 309 311 319 327 334 333 332 333 331 332 335 335 334 330 330
301 301 301 301 301 301 301 301 302 302 302 302 303 303 303 305 305 304 304 306 309 312 325 333 334 332 331 330 334 334 335 332 330
300 301 301 301 301 301 301 301 301 302 302 303 303 303 302 304 304 303 303 306 309 312 314 328 333 333 331 329 333 333 333 332 331
301 300 300 301 301 301 301 301 301 302 301 300 301 301 303 303 302 302 302 303 308 310 311 311 325 332 332 331 331 332 332 332 331
300 300 300 300 300 300 300 300 301 300 301 302 302 303 303 302 303 303 302 302 304 308 308 308 309 324 330 330 331 329 332 332 331

GFSFLT1_925_thetae_006.txt.gz
Theta_e
335 333 335 332 334 338 343 343 344 343 344 343 343 341 343 344 343 345 345 343 345 347 346 345 341 340 338 335 334 333 335 332 332
339 336 336 332 334 335 332 340 345 345 343 344 343 343 343 345 344 345 345 345 347 347 342 341 340 339 337 337 333 332 332 331 330
331 334 336 335 335 332 332 335 334 339 344 343 345 343 343 342 343 345 345 345 344 347 344 341 340 338 335 334 333 333 332 329 329
323 325 330 330 330 332 332 335 332 331 335 340 343 344 343 343 339 340 345 345 343 347 346 343 340 338 337 333 331 334 333 328 329
318 320 324 326 325 327 326 335 336 335 330 339 342 344 343 343 341 339 340 344 341 342 345 342 338 337 335 331 332 333 332 329 330
313 315 317 320 318 318 318 320 328 322 325 329 330 339 340 343 342 342 334 335 340 340 341 342 339 336 334 331 332 332 331 330 329
309 311 312 313 313 313 313 314 315 316 316 323 329 333 334 334 338 339 338 336 337 337 339 342 340 337 335 332 331 332 332 329 332
306 307 308 309 308 308 307 308 310 312 313 315 318 323 329 333 333 338 339 338 340 340 338 341 340 337 334 333 333 332 331 330 331
305 306 306 304 303 303 305 305 306 307 309 311 315 317 319 327 335 336 339 339 338 338 337 341 341 337 333 335 334 333 331 332 331
305 306 306 304 302 304 305 305 304 303 302 302 304 307 312 315 317 324 332 333 333 339 341 341 340 340 335 334 334 333 331 330 330
304 305 306 305 303 304 303 302 304 303 303 302 301 302 304 308 312 315 319 326 329 332 335 341 341 340 338 334 332 332 333 331 330
302 304 305 305 303 303 302 302 301 304 304 301 304 305 302 304 305 308 313 318 322 328 330 332 338 339 340 337 334 333 334 333 330
302 303 303 303 303 304 303 303 302 302 302 302 306 304 304 300 300 301 305 308 314 319 327 332 335 337 337 338 334 332 335 333 331
301 302 303 303 303 303 303 302 302 302 302 302 302 305 300 299 303 302 304 308 308 312 317 324 332 334 336 335 336 332 334 334 330
301 301 302 302 302 302 302 301 302 301 302 301 301 301 301 303 299 303 303 301 301 302 307 314 325 332 333 335 336 336 334 335 330
300 301 301 302 301 301 301 300 300 300 301 301 301 301 302 300 303 300 299 299 299 301 304 308 312 326 331 333 334 337 335 336 332
300 300 300 301 301 301 300 301 300 300 300 302 301 298 299 300 300 302 301 299 300 301 302 308 311 315 331 330 333 333 335 336 334
300 300 301 300 301 301 301 301 301 301 301 300 300 299 299 300 300 301 300 300 301 301 302 308 309 308 315 329 330 332 333 336 335
300 300 300 300 300 300 300 300 300 301 300 300 301 301 301 301 301 300 300 301 301 301 301 303 307 307 306 311 331 332 331 334 335
300 299 299 299 300 300 299 300 299 299 299 300 300 300 301 301 300 301 301 301 301 301 301 301 305 307 305 307 311 332 331 333 332

GFSFLT1_925_thetae_009.txt.gz
Theta_e
335 334 334 336 337 337 344 345 344 343 343 343 343 342 342 345 344 345 344 342 343 348 346 343 343 340 339 337 334 332 335 332 331
335 336 335 335 335 334 337 339 343 344 343 344 343 343 343 344 344 344 344 343 343 345 347 342 341 344 342 339 338 337 339 331 331
330 332 332 332 332 333 335 336 335 339 342 342 344 344 342 343 344 344 345 344 343 343 344 344 343 342 341 339 338 337 335 332 330
323 328 329 328 330 328 333 336 334 329 340 340 342 343 342 343 342 339 341 345 342 341 342 342 343 341 339 336 335 334 334 332 329
317 319 324 324 324 323 323 330 330 322 328 333 339 342 341 341 342 342 340 339 343 342 340 340 342 340 338 336 332 333 334 331 330
311 314 317 318 315 316 315 316 318 317 321 326 330 335 337 336 336 339 339 338 335 340 341 339 341 340 338 335 333 333 334 330 330
308 309 310 310 308 308 308 310 312 314 315 317 322 325 327 331 336 337 338 338 338 338 338 341 339 341 338 335 333 333 333 330 329
305 306 305 303 302 303 304 305 306 307 309 311 313 316 319 322 326 333 337 338 339 341 341 338 339 341 339 337 334 333 332 332 328
304 304 303 301 302 302 302 301 301 301 301 302 304 307 311 313 316 319 321 330 335 340 340 340 340 339 340 336 335 334 333 332 329
303 304 304 302 302 302 300 301 300 301 302 301 302 302 302 305 308 311 314 318 324 331 335 338 340 340 340 336 336 335 334 331 332
303 304 304 302 302 302 301 300 300 300 300 300 303 303 302 300 299 301 304 306 311 319 324 330 335 337 340 338 335 335 334 331 330
302 303 302 302 302 302 302 300 300 300 300 299 298 300 299 297 300 299 299 301 304 307 311 318 324 331 337 339 338 334 334 332 331
301 302 302 303 302 302 302 301 301 300 300 300 298 298 298 301 297 300 301 300 300 301 302 305 313 319 328 338 338 335 333 334 333
300 302 302 302 302 301 302 300 301 300 300 300 299 298 299 298 299 300 297 298 298 297 298 299 303 311 319 329 338 338 335 333 334
300 301 301 302 302 301 301 300 300 300 299 300 300 299 301 299 302 297 298 298 297 297 298 297 299 305 311 318 331 337 338 334 333
300 300 300 301 301 301 301 300 300 300 300 300 300 299 302 299 299 299 300 299 298 299 300 300 300 302 311 311 316 332 338 337 335
300 300 300 301 300 301 300 300 300 300 300 301 299 296 298 299 299 299 299 299 299 300 300 301 301 301 301 303 308 317 331 338 337
300 300 300 300 300 300 300 300 300 300 300 299 299 297 297 299 299 298 299 299 300 300 300 300 300 300 300 303 303 310 319 329 338
300 300 300 299 299 300 300 299 300 298 298 298 299 300 300 298 299 299 299 300 300 301 300 300 300 300 300 303 307 306 312 322 333
300 300 299 299 299 299 299 299 299 298 298 298 299 299 299 299 299 299 299 299 300 300 299 299 300 300 301 303 306 307 307 312 324

GFSFLT1_925_thetae_012.txt.gz
Theta_e
336 335 335 335 335 339 342 344 345 343 342 343 342 342 342 344 344 345 342 341 341 344 345 344 341 339 340 341 337 336 337 335 334
333 333 334 334 335 336 338 337 340 344 343 343 343 342 342 343 343 343 343 343 342 341 342 341 340 340 341 339 337 337 336 336 333
331 331 330 332 331 336 337 333 330 340 342 343 344 344 342 343 343 343 344 344 343 341 340 341 340 340 342 340 339 339 338 334 331
325 328 328 327 327 328 330 330 322 334 337 339 343 342 342 342 342 341 339 338 341 340 341 339 340 341 340 338 337 336 335 334 329
318 321 324 323 322 323 323 325 320 322 328 332 339 341 341 339 338 339 340 340 340 339 341 340 339 340 340 338 336 334 334 334 329
312 316 318 316 317 316 315 315 316 316 319 324 328 334 334 335 333 335 336 338 339 340 337 340 338 340 341 339 335 333 335 334 329
307 308 307 306 305 305 306 308 310 311 312 314 318 320 322 326 330 332 334 335 339 340 341 338 338 338 341 339 335 334 334 334 330
305 304 302 302 303 302 301 302 302 303 304 306 309 311 313 316 318 320 324 330 333 335 339 339 338 340 338 340 337 335 334 333 332
303 302 301 301 301 300 300 300 301 301 300 301 302 303 304 306 308 313 317 321 324 328 330 332 336 339 340 340 340 336 335 333 333
303 303 302 301 301 300 300 300 299 299 299 300 300 301 299 299 300 302 304 310 317 320 323 329 332 333 335 339 339 336 335 335 334
302 303 302 301 302 301 300 300 299 299 299 298 297 297 297 299 298 298 299 300 300 304 310 315 321 326 331 335 337 337 335 335 333
301 302 302 302 302 301 301 300 300 298 298 297 297 297 298 298 298 298 297 298 298 297 298 302 309 315 320 325 329 336 336 335 333
301 301 302 302 301 301 300 299 299 298 298 298 298 298 298 298 300 296 297 297 297 297 297 301 298 301 312 318 322 331 334 336 334
300 301 302 301 301 300 300 300 299 299 299 299 299 298 298 298 298 296 297 297 298 297 298 298 297 297 306 314 319 320 328 335 335
300 301 301 301 301 300 300 300 300 300 300 299 300 298 298 298 299 297 297 297 298 299 299 299 299 299 299 306 308 313 317 322 329
300 300 300 301 301 300 300 300 300 300 299 300 298 298 299 300 299 298 298 297 298 298 298 299 299 299 299 299 299 306 311 315 322
300 300 300 300 300 300 300 300 300 299 299 299 297 295 298 299 299 298 298 298 298 298 298 299 299 299 299 299 299 299 301 310 316
300 300 300 300 300 300 299 299 299 299 298 298 298 296 295 297 298 298 298 298 298 299 299 299 298 299 299 299 300 300 301 309 312
300 300 300 300 299 299 299 299 299 298 298 298 298 299 299 297 296 298 298 298 298 298 299 299 299 299 299 300 300 301 304 309 309
300 299 300 299 298 299 299 298 299 298 298 298 298 298 298 298 297 298 297 297 298 298 299 299 299 299 299 300 301 301 305 309 309

GFSFLT1_925_thetae_015.txt.gz
Theta_e
336 337 337 337 338 340 341 343 345 344 343 343 342 344 343 344 344 344 344 346 341 341 342 342 341 339 340 341 339 337 335 337 334
333 333 334 334 338 339 335 337 342 344 344 345 344 342 343 343 343 344 343 344 343 341 341 341 340 340 339 341 338 338 337 335 333
332 332 331 331 332 333 330 326 334 338 340 344 344 344 342 342 342 341 340 340 343 341 344 340 340 339 340 340 338 338 338 335 332
329 329 328 327 328 328 327 324 322 333 336 339 343 342 342 341 340 340 339 340 340 341 341 341 340 340 340 339 339 337 337 334 331
321 323 324 324 324 323 322 322 319 322 329 333 339 341 339 338 336 336 337 340 341 342 339 341 340 339 340 340 337 336 336 335 331
316 319 319 319 318 317 314 315 316 317 321 326 329 334 335 334 333 333 335 337 340 340 341 337 340 338 340 341 339 335 334 335 332
308 311 308 307 305 306 307 308 310 312 313 316 320 322 323 326 328 326 332 333 335 337 339 340 340 340 341 342 340 335 335 336 333
304 303 302 302 301 301 301 301 301 303 305 307 309 311 314 317 318 318 322 325 331 334 335 336 337 338 339 341 341 337 336 335 334
303 302 301 301 300 300 300 300 300 300 301 301 301 302 304 306 308 310 315 318 322 326 331 330 334 334 337 338 340 340 337 336 334
303 302 301 301 300 300 300 299 299 299 299 299 299 300 299 299 300 301 303 307 312 318 319 319 324 329 331 333 333 338 338 336 335
303 302 301 301 301 300 300 299 299 299 300 298 298 299 299 298 298 298 297 298 298 300 306 309 314 318 322 323 326 332 336 338 335
302 302 301 301 301 301 300 300 299 299 300 300 300 298 299 299 298 297 297 297 297 297 303 304 306 309 312 318 322 325 333 334 337
301 301 301 301 301 301 300 299 300 301 301 301 301 300 299 298 298 297 298 297 298 298 298 298 299 305 308 310 315 318 322 332 335
300 301 301 301 301 300 300 299 300 301 301 301 301 300 298 299 298 299 299 298 299 298 299 298 299 299 305 307 308 310 313 319 330
300 301 301 301 301 300 300 300 300 300 300 300 300 299 298 299 300 300 299 299 298 298 298 299 301 300 300 300 303 307 310 311 317
300 300 301 301 301 300 300 300 300 301 300 301 300 300 299 300 300 300 299 299 299 299 300 301 301 301 301 300 300 303 306 308 311
300 300 300 300 301 300 300 300 300 300 299 300 299 301 301 300 299 299 299 299 299 299 299 300 300 301 301 301 301 300 300 305 309
300 300 300 300 300 300 300 299 299 300 299 298 300 301 301 300 299 299 299 299 299 299 299 299 300 300 300 301 302 302 303 301 306
300 300 300 300 300 299 299 299 299 299 299 299 299 299 300 301 301 299 299 299 299 299 299 299 300 300 300 301 301 300 303 305 306
300 300 300 300 299 299 299 299 298 299 299 299 299 299 300 300 301 301 300 299 299 299 299 299 300 300 300 301 301 302 304 305 306

GFSFLT1_925_thetae_021.txt.gz
Theta_e
337 337 341 340 337 340 344 344 345 345 345 344 345 343 345 346 347 347 348 347 346 345 341 343 341 339 339 341 339 339 339 336 335
335 334 335 336 334 334 338 341 342 343 345 347 343 342 345 345 344 345 345 345 345 346 344 341 341 340 340 342 341 339 339 337 334
332 331 331 332 332 330 329 332 334 339 345 346 344 342 344 345 344 343 343 340 344 344 342 343 340 341 340 341 339 337 340 337 334
331 329 330 329 328 322 322 322 321 332 338 343 343 342 343 343 342 340 341 341 342 343 342 341 342 340 340 340 339 339 339 337 333
322 326 326 326 321 316 318 319 319 321 331 339 341 340 340 340 340 336 337 341 342 344 342 338 342 342 342 342 342 340 338 338 337
324 321 322 322 313 312 314 316 316 317 319 328 336 334 335 336 336 333 333 337 339 339 340 341 341 341 342 342 343 340 337 335 337
321 317 309 307 305 305 307 310 312 315 317 318 321 323 328 331 329 326 326 331 333 334 335 337 337 338 339 341 343 342 338 335 337
318 314 313 311 309 310 309 310 310 311 313 313 314 316 318 321 324 319 321 326 325 327 328 330 334 335 335 336 339 342 341 337 336
313 312 311 311 310 309 309 309 308 308 308 308 308 309 311 314 316 315 314 317 319 321 323 323 325 330 330 330 335 338 341 340 338
313 312 311 310 309 309 309 308 308 307 307 306 307 307 307 308 309 311 306 303 309 315 317 318 319 321 323 326 329 331 336 339 340
313 312 311 310 309 309 308 308 308 307 307 306 306 306 306 306 306 307 308 304 300 304 311 312 313 315 317 318 322 325 327 333 338
313 312 311 311 309 308 307 307 307 307 306 307 306 306 306 306 305 306 306 307 306 303 300 304 309 311 313 314 315 316 317 320 327
312 312 311 311 309 308 308 308 307 307 307 307 307 307 306 306 304 305 305 306 306 306 305 300 299 305 310 311 312 312 312 315 317
312 312 311 310 309 309 308 308 308 308 308 307 306 306 306 306 305 305 305 305 306 306 305 304 304 304 306 309 310 311 312 313 313
312 311 311 310 309 309 308 308 307 307 307 306 305 306 306 306 306 305 305 305 305 305 305 305 305 304 305 306 308 310 311 312 312
311 311 311 309 309 309 308 307 308 307 306 306 308 307 306 305 306 306 305 305 304 304 304 304 304 304 304 305 306 307 308 310 312
311 311 310 309 309 308 308 307 307 307 306 306 306 310 308 306 305 305 304 304 304 304 304 304 304 304 304 304 304 303 306 308 310
310 310 310 309 309 308 308 307 307 307 306 304 305 308 310 306 305 305 305 304 304 304 304 304 303 303 303 303 304 304 305 306 308
309 309 309 309 308 308 308 307 307 306 307 305 304 304 304 305 306 305 305 304 303 303 303 303 303 303 303 303 303 304 305 305 307
309 308 308 308 308 308 307 306 306 306 305 305 305 304 304 304 304 305 305 304 303 303 302 302 303 303 303 303 303 303 305 305 306

GFSFLT1_925_thetae_024.txt.gz
Theta_e
335 338 337 337 338 343 345 345 346 345 344 344 341 345 345 346 347 346 345 344 346 344 341 341 340 339 339 340 338 339 338 336 334
333 333 335 333 333 337 339 342 345 344 345 345 341 344 344 344 344 343 342 343 344 346 343 340 340 340 339 341 339 339 338 337 334
331 331 332 331 330 329 332 331 331 345 347 344 342 343 345 341 342 341 340 340 343 343 341 341 339 340 340 341 339 336 338 336 334
327 329 329 327 322 319 322 320 320 333 341 342 342 343 342 340 339 338 339 342 342 341 341 340 342 341 340 340 340 338 337 336 333
325 325 323 318 314 314 317 318 318 321 331 339 341 339 340 338 336 334 336 338 338 341 343 341 341 342 341 341 342 341 338 338 336
325 324 313 309 308 310 312 314 315 318 318 329 337 332 336 335 333 333 332 334 335 338 339 339 340 342 343 341 342 340 337 334 337
322 309 307 305 305 305 306 310 313 315 317 317 320 324 329 329 328 327 328 330 332 334 335 336 336 337 339 340 342 342 340 335 336
317 310 311 309 310 310 309 310 310 311 311 313 313 317 320 323 324 322 323 324 327 328 328 329 332 333 334 336 339 340 342 338 336
317 313 312 310 310 309 309 309 308 307 308 308 308 310 312 314 316 316 312 318 321 323 323 325 326 329 332 332 332 336 338 341 339
313 312 311 310 309 309 309 308 308 307 307 306 307 307 307 308 309 310 307 302 307 316 318 319 320 322 323 326 328 329 333 337 339
313 312 311 310 309 309 309 308 308 307 307 306 306 307 306 307 306 307 307 306 304 303 308 312 314 316 317 318 319 321 324 328 334
313 312 311 311 310 309 308 307 307 307 307 307 306 306 306 306 305 306 306 306 306 305 304 301 308 312 313 313 313 313 314 317 321
313 312 312 311 310 308 308 307 307 307 307 307 307 306 306 306 305 305 305 306 306 306 305 303 301 304 309 311 312 312 313 314 314
313 312 312 311 310 308 308 308 308 308 308 307 307 306 306 306 306 305 305 305 304 304 304 305 305 305 305 309 310 312 313 314 314
313 312 311 311 310 309 308 308 307 307 308 307 306 305 306 306 306 305 305 305 305 304 304 304 304 306 306 306 308 310 311 312 313
312 312 311 311 309 309 308 307 308 307 306 306 306 307 307 306 305 306 305 305 305 304 304 304 304 303 304 305 306 307 307 309 311
312 312 311 311 309 309 309 307 307 307 307 305 307 304 307 306 305 305 305 304 304 304 304 304 304 303 303 303 304 303 304 308 309
312 312 311 311 309 309 309 308 307 307 306 305 305 304 303 305 306 305 305 304 304 304 304 304 303 303 303 303 303 304 305 306 307
312 311 311 310 309 309 308 308 307 308 307 305 304 304 304 301 301 305 305 305 304 303 303 303 303 302 303 303 303 303 304 305 306
312 311 311 310 309 309 309 308 307 307 307 306 305 303 304 304 302 301 304 305 304 303 302 302 302 303 303 303 303 303 304 305 305

GFSFLT1_925_thetae_027.txt.gz
Theta_e
338 337 335 338 342 343 345 345 345 343 343 342 344 345 346 345 344 343 342 343 346 341 341 341 339 339 340 341 340 339 338 336 333
334 334 333 333 336 337 340 343 347 344 344 341 344 344 343 340 340 340 340 342 343 345 342 340 341 340 340 341 339 339 338 335 333
331 331 331 330 329 332 332 334 344 345 344 341 342 345 341 337 337 336 338 340 341 340 340 341 340 340 340 341 338 340 337 336 332
325 325 327 325 316 318 317 317 331 340 339 342 342 342 339 336 335 335 337 341 340 340 339 341 341 341 340 340 340 338 336 335 332
321 313 312 312 312 314 315 316 318 329 336 341 341 340 338 335 334 334 335 335 337 339 340 341 341 341 340 340 342 339 338 337 335
324 312 307 308 309 311 313 314 317 317 324 337 335 335 335 336 334 333 333 333 333 336 338 338 340 340 341 341 343 341 337 335 338
319 311 306 304 305 306 310 312 314 316 317 325 324 330 329 330 330 328 327 332 332 333 334 335 335 336 337 341 342 342 339 335 335
321 307 306 306 309 308 309 310 311 314 314 314 319 319 321 325 324 323 320 328 330 330 330 331 332 334 334 337 337 339 342 338 337
320 312 311 309 309 308 309 307 306 309 308 308 310 314 315 316 317 315 312 321 325 325 325 327 328 330 331 333 332 335 337 340 339
315 313 311 310 309 309 308 308 307 307 307 307 307 307 309 310 311 310 307 304 316 319 319 321 322 323 325 327 328 330 331 335 337
313 313 312 310 309 309 308 308 308 307 306 306 306 307 306 307 307 306 306 305 305 310 312 314 316 318 318 318 320 321 323 326 332
313 312 312 311 309 309 308 308 308 307 306 306 306 306 306 306 305 305 306 306 306 305 304 304 310 312 314 314 313 313 313 314 319
313 312 312 311 310 309 308 307 307 307 307 306 306 306 306 306 305 305 305 305 305 305 305 304 302 306 309 311 312 313 314 315 314
314 313 312 311 310 309 308 307 307 307 307 307 307 306 306 306 305 304 304 304 304 304 303 304 303 305 307 308 309 311 313 314 314
314 313 312 311 310 309 308 308 307 307 307 307 307 305 305 306 306 305 305 304 305 304 304 303 303 305 308 307 308 309 310 310 312
313 313 312 311 311 310 309 308 308 307 307 307 306 306 306 306 306 306 305 305 305 304 304 303 303 303 304 304 305 307 307 308 310
313 313 312 311 311 310 309 308 307 307 306 305 304 301 305 306 305 305 306 305 304 304 303 303 303 303 303 303 303 304 305 306 308
314 313 312 312 311 310 309 308 307 307 307 306 304 301 302 303 305 304 305 304 304 304 303 304 303 303 303 303 303 303 303 306 307
314 313 312 312 311 310 309 309 308 307 307 306 305 304 304 299 301 304 304 304 304 304 303 303 303 302 302 302 303 303 303 305 306
315 313 312 312 311 311 310 309 308 307 306 306 304 303 303 302 299 299 302 304 304 303 302 302 301 302 303 303 302 302 303 304 306

GFSFLT1_925_thetae_030.txt.gz
Theta_e
337 338 342 340 342 343 344 345 341 342 342 344 347 345 344 343 340 341 341 343 344 344 342 340 340 341 343 341 340 339 337 335 332
336 334 336 338 339 340 340 343 343 344 341 344 344 344 342 340 339 339 339 341 342 344 342 342 341 341 342 340 340 339 336 334 331
334 333 332 333 335 336 337 342 345 344 340 343 343 342 339 337 336 336 336 339 341 340 340 341 340 341 341 340 340 338 337 334 330
332 332 331 330 331 327 329 336 342 342 342 341 344 342 337 335 335 334 337 340 340 339 338 340 341 340 339 341 340 340 337 334 331
331 331 329 326 321 318 317 322 333 336 339 341 341 340 338 335 334 332 334 335 335 338 338 340 341 341 341 340 341 340 339 336 332
328 319 324 322 313 314 315 317 321 330 338 339 338 337 337 335 334 333 332 331 332 334 335 338 339 340 340 341 343 341 336 338 337
322 315 317 313 310 312 313 315 317 318 333 333 331 334 334 334 333 332 331 331 332 332 334 335 335 336 338 340 341 341 338 335 336
321 313 309 307 307 308 311 312 314 315 319 322 324 327 328 329 328 326 323 330 331 331 332 333 333 335 334 336 338 339 340 338 338
321 313 307 307 309 308 308 308 309 312 312 312 317 317 320 322 321 318 315 325 329 328 328 328 330 331 334 333 332 336 339 340 339
322 318 311 309 309 308 309 307 307 308 307 308 310 312 313 315 314 312 309 312 322 322 322 323 324 325 327 328 329 330 332 335 338
319 318 313 311 309 309 308 307 307 306 306 306 307 307 307 309 308 307 306 305 310 315 315 317 318 320 320 319 320 323 325 326 330
317 316 313 312 310 309 309 308 307 307 306 306 305 306 306 306 306 305 306 306 306 305 305 309 313 314 314 314 314 314 316 316 318
316 315 313 312 311 309 309 308 307 307 306 306 306 305 306 306 305 305 305 305 305 305 303 303 301 309 310 311 312 313 314 315 315
315 314 313 312 311 310 309 308 307 307 306 306 306 306 306 306 305 305 305 304 304 304 304 304 303 305 307 309 309 311 313 313 314
314 314 313 313 312 310 309 308 306 306 306 306 306 306 306 306 305 305 305 304 304 305 304 304 303 305 308 308 308 309 310 310 311
314 314 314 313 312 311 310 308 307 307 307 307 307 307 305 305 305 305 305 304 304 305 304 303 303 303 308 306 306 307 309 308 309
314 313 313 313 312 311 310 309 307 307 307 306 303 301 304 305 305 305 305 305 305 305 304 303 303 303 303 303 303 304 305 306 307
314 314 313 313 313 312 311 309 308 307 306 306 304 299 301 301 304 305 305 305 305 304 304 303 303 303 303 303 303 303 303 306 307
313 313 314 313 313 312 311 310 309 308 306 305 305 304 304 300 301 303 304 304 304 304 303 303 303 303 303 302 302 302 303 305 305
315 315 313 313 313 313 312 310 310 308 307 307 305 303 302 302 298 299 301 303 303 303 303 303 302 302 301 302 302 302 302 303 305

GFSFLT1_925_thetae_036.txt.gz
Theta_e
340 343 341 342 342 343 343 342 343 344 344 344 344 346 343 341 341 341 342 343 343 343 340 340 341 342 341 340 339 337 334 334 334
336 339 340 340 340 340 341 342 344 343 345 344 343 344 342 341 341 341 341 342 343 343 341 340 341 341 341 340 339 337 333 333 336
335 334 336 337 338 339 338 341 342 342 343 343 344 343 341 339 337 336 337 339 341 340 338 338 339 340 341 340 340 337 333 333 332
334 333 332 333 334 335 334 337 339 343 340 341 343 341 338 335 335 335 335 338 339 338 336 337 338 339 341 339 340 339 334 332 329
333 332 331 330 331 331 332 336 339 339 338 339 343 341 337 334 334 332 335 334 335 337 337 337 338 339 340 341 341 339 336 332 328
326 326 325 329 328 329 329 330 335 336 338 340 340 340 337 334 333 332 331 331 329 334 333 338 339 339 339 340 341 340 337 334 330
317 320 318 325 326 325 325 323 324 331 333 337 337 336 338 335 334 332 331 331 330 332 332 333 334 336 337 339 340 340 337 336 333
314 316 314 311 313 314 315 316 316 317 326 332 332 334 335 335 333 333 332 330 328 328 328 329 332 333 336 336 339 339 339 336 337
316 317 316 310 309 309 310 312 312 313 315 322 323 326 330 331 330 329 326 322 327 328 329 330 331 332 332 333 335 337 339 338 337
319 318 318 311 308 308 308 308 308 308 311 312 314 317 321 324 324 322 317 316 324 326 326 327 328 329 330 329 330 333 334 337 336
320 318 319 317 310 308 309 308 308 306 307 307 307 309 313 316 317 315 312 309 311 318 320 321 322 324 324 325 326 326 327 328 332
324 318 319 319 315 310 309 309 308 307 306 305 305 306 306 308 310 309 307 306 307 307 307 312 317 318 317 316 317 318 320 322 325
329 321 317 319 318 313 310 309 308 308 307 306 305 305 305 305 306 306 306 305 306 306 305 303 310 313 313 313 312 313 314 313 313
331 326 319 318 319 315 312 310 308 308 307 307 306 305 305 305 305 305 305 305 305 305 304 304 305 308 310 311 311 311 313 312 313
327 327 322 318 318 316 313 311 309 308 308 307 306 306 305 305 305 305 305 305 305 304 304 305 306 307 311 310 311 311 311 311 310
313 314 318 319 317 316 314 311 309 309 307 306 305 305 305 306 306 305 305 305 305 304 304 304 304 303 307 312 312 310 311 313 310
310 313 313 311 314 314 313 311 309 308 307 305 302 302 304 305 306 305 305 304 305 304 304 304 304 303 303 308 310 308 308 309 309
305 306 310 312 312 310 312 311 309 307 307 305 306 299 301 298 303 304 304 304 304 304 304 304 304 304 303 303 303 303 303 307 308
305 306 307 309 310 310 311 310 310 307 306 304 305 305 303 300 301 303 303 303 304 304 304 304 304 304 303 303 303 303 302 303 307
306 306 307 307 308 308 310 310 309 308 307 306 306 303 301 301 299 300 300 302 304 304 304 304 304 304 303 303 302 302 302 302 307

GFSFLT1_925_thetae_042.txt.gz
Theta_e
342 340 340 339 340 342 341 344 343 344 343 344 345 342 341 345 344 346 344 346 342 341 339 340 342 342 342 339 337 335 336 334 337
335 338 337 338 338 339 340 342 345 342 344 343 345 342 340 345 342 340 342 345 342 340 340 339 341 341 341 340 338 335 338 336 336
320 323 333 335 333 336 335 341 342 342 342 344 342 342 340 341 341 340 338 338 340 339 336 337 338 341 340 341 338 333 336 333 334
330 322 320 323 326 326 333 339 341 343 341 342 342 342 338 339 340 338 336 335 339 340 337 335 336 340 342 341 340 335 335 334 333
332 330 327 329 325 320 325 338 336 340 338 340 342 341 338 339 340 338 337 334 337 338 339 338 335 340 341 342 342 337 334 333 331
332 331 326 330 330 329 319 332 334 333 337 335 335 338 341 339 337 337 336 330 332 330 333 337 338 339 339 340 341 341 335 329 328
330 327 325 326 329 328 326 321 323 332 333 334 334 336 337 336 336 336 335 331 331 330 328 332 334 334 337 337 339 339 336 332 326
332 328 328 327 326 325 324 323 320 320 323 326 328 331 333 333 334 335 334 332 332 331 328 331 331 333 334 335 340 340 338 338 334
334 330 326 325 323 321 321 319 318 317 316 318 323 327 330 331 332 333 334 332 330 328 325 322 328 331 332 333 334 337 338 338 338
337 333 329 325 323 320 317 316 315 314 313 313 315 320 325 327 329 329 329 328 325 327 325 321 327 330 331 330 331 333 338 338 336
339 337 333 328 324 321 317 314 313 312 312 311 311 313 317 321 323 324 324 321 317 321 326 325 327 328 329 330 330 330 332 334 336
337 337 335 333 327 323 318 315 313 312 311 310 310 310 312 316 317 319 319 317 314 311 320 321 322 324 326 325 326 325 326 328 329
333 334 333 333 329 325 321 317 315 313 312 312 310 309 310 312 313 314 314 314 313 314 308 311 316 319 322 320 318 318 320 322 323
321 327 328 328 330 329 324 320 317 315 314 312 311 310 310 309 310 312 313 312 312 313 313 307 309 315 317 317 316 315 316 316 314
312 315 319 323 324 325 327 325 320 316 315 314 312 311 310 310 309 309 310 311 312 312 313 312 311 307 313 315 315 315 315 315 314
309 310 312 315 319 321 322 324 322 319 316 314 313 313 312 311 310 309 309 310 310 312 312 312 311 312 312 314 314 315 316 315 314
308 308 309 310 312 315 317 317 321 320 318 314 314 318 317 313 312 311 310 309 309 310 311 311 310 311 311 312 313 315 316 316 317
307 307 307 308 309 310 312 316 315 315 318 315 315 317 319 321 316 312 311 310 309 309 310 310 310 309 309 309 308 311 314 314 313
306 306 306 306 307 308 309 310 313 314 314 316 313 311 313 319 320 312 310 310 309 309 309 309 309 309 308 308 307 308 310 309 310
304 304 303 304 304 305 307 308 309 311 312 312 314 311 310 310 311 318 314 309 309 309 309 309 309 308 308 308 308 304 304 304 304

GFSFLT1_925_thetae_045.txt.gz
Theta_e
339 341 340 339 339 341 341 344 345 344 344 344 344 341 341 345 341 344 345 346 342 340 339 341 342 343 341 338 336 337 336 338 339
338 338 337 336 338 340 340 342 344 345 343 345 345 341 341 344 340 338 341 343 340 339 339 340 342 342 342 340 336 338 337 337 338
329 326 330 332 332 336 334 341 344 344 342 344 343 342 340 342 338 338 338 335 335 342 338 337 338 342 342 341 336 337 336 335 338
333 328 324 325 327 327 331 339 340 343 340 343 342 342 338 341 339 337 339 331 342 342 339 337 337 339 342 342 339 335 334 336 335
327 326 331 323 326 326 326 337 338 340 340 341 341 341 340 339 338 337 338 331 338 338 340 340 337 338 342 342 342 336 336 336 332
334 333 330 322 316 320 320 332 336 335 337 336 335 337 341 340 336 336 337 334 335 333 333 336 338 339 339 340 341 339 335 335 331
333 330 325 320 317 313 314 311 327 332 331 337 334 334 337 339 338 336 336 336 333 331 329 330 334 336 336 336 338 340 335 331 332
336 333 332 331 330 329 327 326 322 321 323 325 327 329 331 334 334 334 335 335 333 332 330 329 331 335 334 334 339 340 338 335 333
339 335 332 328 327 325 323 322 321 321 319 319 322 324 328 330 331 333 334 333 333 332 329 325 329 331 333 332 334 337 339 337 338
341 340 336 332 328 325 323 320 319 318 317 316 316 318 322 327 329 331 332 331 331 331 329 322 328 329 332 331 331 332 339 338 337
341 340 340 338 333 328 325 321 318 317 315 315 314 314 316 321 324 326 328 326 326 325 328 327 327 330 330 330 330 330 332 336 337
335 337 337 337 338 334 328 323 319 317 316 314 313 313 313 316 319 322 322 323 319 317 324 324 323 325 329 328 328 328 328 331 332
322 330 331 332 333 333 330 326 322 319 317 316 314 313 312 312 315 317 319 318 318 316 311 319 320 321 325 325 322 324 324 325 326
312 316 320 326 327 328 330 330 327 322 319 317 316 315 313 312 312 314 315 316 315 315 316 310 313 318 320 323 320 318 319 319 319
310 310 312 315 319 324 324 326 329 328 321 319 318 316 314 313 312 312 313 314 314 313 314 315 311 311 317 319 319 318 317 317 316
307 309 309 310 311 314 319 321 324 325 327 321 319 318 316 315 313 312 312 312 313 314 313 315 314 313 312 316 318 318 318 317 316
306 307 308 309 309 310 312 315 319 321 322 324 321 320 320 317 316 314 313 312 312 313 314 314 314 313 314 312 315 317 318 318 317
305 306 307 307 307 308 309 311 313 318 319 319 320 321 320 322 319 317 314 313 312 312 312 313 313 312 313 313 312 314 316 318 319
305 305 306 306 306 306 306 307 309 311 315 316 316 317 315 319 323 319 317 315 314 313 312 312 312 312 311 312 312 311 312 317 318
305 305 305 305 305 305 305 305 306 308 309 312 314 316 315 314 314 314 318 315 314 313 312 311 312 311 311 310 310 309 307 311 315

GFSFLT1_925_thetae_048.txt.gz
Theta_e
339 341 339 338 339 341 341 343 344 343 343 343 342 339 344 341 340 341 344 341 341 340 339 341 342 341 339 336 337 337 339 339 340
333 335 333 333 333 339 338 340 344 344 342 343 342 339 343 339 338 338 341 337 338 341 341 342 342 342 340 336 339 337 338 338 339
322 317 319 323 327 328 332 337 344 344 342 343 342 341 340 341 339 337 338 336 333 343 339 338 341 342 342 338 336 338 336 339 338
320 315 314 313 313 319 320 338 340 343 341 343 340 341 338 340 340 339 338 332 338 343 340 337 338 340 341 340 334 336 335 337 338
334 331 328 328 315 312 312 331 337 338 340 341 340 340 340 337 339 337 337 333 334 342 341 340 339 337 341 342 339 336 335 335 337
335 334 333 329 319 312 312 314 332 334 336 337 336 335 337 341 339 337 337 335 330 335 334 337 340 340 338 340 341 336 335 335 333
335 333 331 328 326 316 314 315 312 325 330 328 334 334 329 339 339 337 336 335 334 331 330 329 334 337 337 336 337 339 334 334 332
338 336 334 331 329 328 327 326 324 316 322 326 334 333 329 333 333 335 335 335 334 333 330 329 329 334 333 334 338 340 337 332 334
341 341 336 332 329 327 326 324 323 322 321 320 321 323 325 329 331 334 333 333 332 332 331 329 329 333 333 332 335 339 338 338 334
341 340 339 339 333 330 327 325 322 320 319 318 317 317 319 324 328 330 332 333 332 331 332 329 329 330 332 330 331 335 339 338 337
332 336 339 339 338 337 335 328 324 320 318 317 316 315 315 316 323 327 329 329 328 327 331 329 327 329 331 330 330 331 335 337 337
316 319 323 329 333 336 336 334 327 323 319 317 316 314 314 314 315 322 325 326 324 322 326 329 327 327 330 330 329 329 329 332 337
311 311 314 320 325 323 327 332 333 329 324 319 317 316 314 313 313 316 320 322 321 320 317 324 325 324 327 329 327 328 328 328 331
308 309 310 311 313 321 322 322 326 330 329 325 320 318 316 314 312 312 316 319 320 319 317 313 316 322 322 327 326 324 325 325 325
307 307 308 309 310 311 315 322 320 322 324 326 326 320 318 316 314 312 313 315 317 316 315 315 313 312 320 323 325 322 321 323 322
306 306 306 308 309 309 310 311 316 320 320 322 325 325 321 319 316 313 312 313 314 314 314 314 315 313 312 319 322 322 320 319 319
306 305 305 306 307 308 308 309 311 313 318 320 321 323 322 320 318 316 313 312 313 314 313 312 315 314 311 309 318 320 320 320 319
305 306 306 306 306 306 307 306 307 310 311 317 318 320 319 315 319 319 316 313 312 313 313 313 313 315 314 313 310 316 318 320 320
304 305 305 305 305 306 305 305 306 306 309 313 315 316 317 316 317 317 317 316 313 312 312 313 313 314 313 314 313 311 314 318 321
304 304 304 304 305 305 306 305 305 305 305 306 309 315 315 316 316 318 317 316 315 313 313 312 313 313 313 312 313 312 310 312 318